Mersa Matruh, Egypt

3:40 AM EET on May 01, 2017 (GMT +0200)
Mersa Matruh

Weather History for HEMM - June, 2014

Change the Weather History Date:

Thursday, June 5, 2014

  Actual Average Record
Temperature  
Mean Temperature 72 °F -  
Max Temperature 77 °F 80 °F 95 °F (2004)
Min Temperature 67 °F 67 °F 55 °F (2004)
Cooling Degree Days 7    
Growing Degree Days 22 (Base 50)    
Moisture  
Dew Point 62 °F    
Average Humidity 69    
Maximum Humidity 83    
Minimum Humidity 51    
Precipitation  
Precipitation 0.00 in 0.00 in - ()
Sea Level Pressure  
Sea Level Pressure 29.95 in    
Wind  
Wind Speed 16 mph ()    
Max Wind Speed 25 mph    
Max Gust Speed -    
Visibility 6.1 miles    
Events      
Averages and records for this station are not official NWS values.
T = Trace of Precipitation, MM = Missing Value Source: Averaged Metar Reports

Daily Weather History Graph

Daily Weather History Graph

Search for Another Location

Airport or City:

Trip Planner

Search our weather history database for the weather conditions in past years. The results will help you decide how hot, cold, wet, or windy it might be!

Date:

Astronomy

Jun. 05, 2014 Rise Set
Actual Time 6:06 AM EEST 8:12 PM EEST
Civil Twilight 5:38 AM EEST 8:40 PM EEST
Nautical Twilight 5:05 AM EEST 9:14 PM EEST
Astronomical Twilight 4:29 AM EEST 9:50 PM EEST
Moon 12:44 PM EEST (6/5) 12:49 AM EEST (6/5)
Length of Visible Light 15h 01m
Length of Day
14h 06m
Waxing Crescent, 45% of the Moon is Illuminated
Jun 5
Waxing Crescent
Jun 5
First Quarter
Jun 13
Full
Jun 19
Last Quarter
Jun 27
New

Hourly Weather History & Observations

Time (EEST) Temp. Dew Point Humidity Pressure Visibility Wind Dir Wind Speed Gust Speed Precip Events Conditions
12:00 AM 71 °F 65 °F 76% 29.91 in 6 mi NNW 18.4 mph - -   Mostly Cloudy
12:00 AM 71.6 °F 64.4 °F 78% 29.89 in - NNW 18.4 mph - N/A   Clear
1:00 AM 71.6 °F 64.4 °F 78% 29.92 in - WNW 17.3 mph - N/A   Clear
2:00 AM 69.8 °F 64.4 °F 83% 29.92 in - West 13.8 mph - N/A   Clear
3:00 AM 69 °F 64 °F 77% 29.92 in 6 mi West 10.4 mph - -   Mostly Cloudy
3:00 AM 69.8 °F 64.4 °F 83% 29.92 in - West 10.4 mph - N/A   Clear
4:00 AM 69.8 °F 64.4 °F 83% 29.92 in - West 15.0 mph - N/A   Clear
5:00 AM 68.0 °F 62.6 °F 83% 29.89 in - NNW 19.6 mph - N/A   Clear
6:00 AM 69 °F 62 °F 71% 29.93 in 6 mi WNW 13.8 mph - -   Partly Cloudy
6:00 AM 69.8 °F 62.6 °F 78% 29.92 in 6.2 mi WNW 13.8 mph - N/A   Mostly Cloudy
7:00 AM 69.8 °F 60.8 °F 73% 29.92 in 6.2 mi NNW 17.3 mph - N/A   Scattered Clouds
8:00 AM 71.6 °F 60.8 °F 69% 29.95 in 6.2 mi WNW 16.1 mph - N/A   Scattered Clouds
9:00 AM 72 °F 59 °F 55% 29.96 in 6 mi NNW 18.4 mph - -   Partly Cloudy
9:00 AM 71.6 °F 57.2 °F 60% 29.95 in 6.2 mi NNW 16.1 mph - N/A   Partly Cloudy
10:00 AM 73.4 °F 59.0 °F 61% 29.95 in 6.2 mi NNW 25.3 mph - N/A   Scattered Clouds
11:00 AM 73.4 °F 60.8 °F 65% 29.95 in 6.2 mi WNW 23.0 mph - N/A   Mostly Cloudy
12:00 PM 74 °F 61 °F 55% 29.97 in 6 mi NNW 23.0 mph - -   Mostly Cloudy
1:00 PM 75.2 °F 57.2 °F 53% 30.01 in 6.2 mi NNW 21.9 mph - N/A   Scattered Clouds
2:00 PM 75.2 °F 60.8 °F 61% 29.98 in 6.2 mi NNW 23.0 mph - N/A   Scattered Clouds
3:00 PM 76 °F 61 °F 51% 29.99 in 6 mi NNW 23.0 mph - -   Partly Cloudy
3:00 PM 75.2 °F 60.8 °F 61% 29.98 in 6.2 mi NNW 23.0 mph - N/A   Scattered Clouds
4:00 PM 75.2 °F 60.8 °F 61% 29.98 in 6.2 mi NNW 23.0 mph - N/A   Mostly Cloudy
5:00 PM 73.4 °F 60.8 °F 65% 30.04 in 6.2 mi NNW 19.6 mph - N/A   Mostly Cloudy
6:00 PM 73 °F 62 °F 59% 29.97 in 6 mi NNW 17.3 mph - -   Mostly Cloudy
6:00 PM 73.4 °F 60.8 °F 65% 29.95 in 6.2 mi NNW 17.3 mph - N/A   Mostly Cloudy
7:00 PM 73.4 °F 62.6 °F 69% 29.95 in 6.2 mi NNW 19.6 mph - N/A   Mostly Cloudy
8:00 PM 71.6 °F 62.6 °F 73% 29.95 in 6.2 mi NNW 17.3 mph - N/A   Mostly Cloudy
9:00 PM 70 °F 62 °F 69% 29.98 in 6 mi NNW 20.7 mph - -   Mostly Cloudy
9:00 PM 69.8 °F 62.6 °F 78% 29.98 in 6.2 mi NNW 20.7 mph - N/A   Mostly Cloudy
10:00 PM 69.8 °F 62.6 °F 78% 29.98 in 6.2 mi NNW 13.8 mph - N/A   Scattered Clouds
11:00 PM 69.8 °F 62.6 °F 78% 29.98 in 6.2 mi NNW 11.5 mph - N/A   Scattered Clouds